"Time","Value","Approval","myLocation"
"2023-04-18 00:00",54.4320297459615,"Approved","OW372"
"2023-04-18 01:00",54.4290711953846,"Approved","OW372"
"2023-04-18 02:00",54.4284205248077,"Approved","OW372"
"2023-04-18 03:00",54.4280416542308,"Approved","OW372"
"2023-04-18 04:00",54.4242128436538,"Approved","OW372"
"2023-04-18 05:00",54.4268920230769,"Approved","OW372"
"2023-04-18 06:00",54.4378890625,"Approved","OW372"
"2023-04-18 07:00",54.4424722419231,"Approved","OW372"
"2023-04-18 08:00",54.4553013613462,"Approved","OW372"
"2023-04-18 09:00",54.4630785407692,"Approved","OW372"
"2023-04-18 10:00",54.4784076701923,"Approved","OW372"
"2023-04-18 11:00",54.4856668696154,"Approved","OW372"
"2023-04-18 12:00",54.4860022090385,"Approved","OW372"
"2023-04-18 13:00",54.4876655184615,"Approved","OW372"
"2023-04-18 14:00",54.4874028578846,"Approved","OW372"
"2023-04-18 15:00",54.4833362073077,"Approved","OW372"
"2023-04-18 16:00",54.4796935167308,"Approved","OW372"
"2023-04-18 17:00",54.4798388461538,"Approved","OW372"
"2023-04-18 18:00",54.4806622055769,"Approved","OW372"
"2023-04-18 19:00",54.488223515,"Approved","OW372"
"2023-04-18 20:00",54.4973487544231,"Approved","OW372"
"2023-04-18 21:00",54.5056161738461,"Approved","OW372"
"2023-04-18 22:00",54.5151895932692,"Approved","OW372"
"2023-04-18 23:00",54.5231069526923,"Approved","OW372"
"2023-04-19 00:00",54.5281003421154,"Approved","OW372"
"2023-04-19 01:00",54.5294017215385,"Approved","OW372"
"2023-04-19 02:00",54.5266031009615,"Approved","OW372"
"2023-04-19 03:00",54.5242444403846,"Approved","OW372"
"2023-04-19 04:00",54.5230417098077,"Approved","OW372"
"2023-04-19 05:00",54.5223329892308,"Approved","OW372"
"2023-04-19 06:00",54.5271981786538,"Approved","OW372"
"2023-04-19 07:00",54.5328793580769,"Approved","OW372"
"2023-04-19 08:00",54.5450625275,"Approved","OW372"
"2023-04-19 09:00",54.5567137369231,"Approved","OW372"
"2023-04-19 10:00",54.5714649563462,"Approved","OW372"
"2023-04-19 11:00",54.5845441257692,"Approved","OW372"
"2023-04-19 12:00",54.5906033351923,"Approved","OW372"
"2023-04-19 13:00",54.5959345646154,"Approved","OW372"
"2023-04-19 14:00",54.5948198540385,"Approved","OW372"
"2023-04-19 15:00",54.5927971434615,"Approved","OW372"
"2023-04-19 16:00",54.5869064028846,"Approved","OW372"
"2023-04-19 17:00",54.5847076723077,"Approved","OW372"
"2023-04-19 18:00",54.5824349117308,"Approved","OW372"
"2023-04-19 19:00",54.5832601511538,"Approved","OW372"
"2023-04-19 20:00",54.5905073605769,"Approved","OW372"
"2023-04-19 21:00",54.60061662,"Approved","OW372"
"2023-04-19 22:00",54.6120098994231,"Approved","OW372"
"2023-04-19 23:00",54.6209991788462,"Approved","OW372"
"2023-04-20 00:00",54.6282684782692,"Approved","OW372"
"2023-04-20 01:00",54.6320998276923,"Approved","OW372"
"2023-04-20 02:00",54.6329091971154,"Approved","OW372"
"2023-04-20 03:00",54.6297866065385,"Approved","OW372"
"2023-04-20 04:00",54.6267120759615,"Approved","OW372"
"2023-04-20 05:00",54.6246975853846,"Approved","OW372"
"2023-04-20 06:00",54.6255890848077,"Approved","OW372"
"2023-04-20 07:00",54.6311925842308,"Approved","OW372"
"2023-04-20 08:00",54.6353021736538,"Approved","OW372"
"2023-04-20 09:00",54.6477977930769,"Approved","OW372"
"2023-04-20 10:00",54.6571193725,"Approved","OW372"
"2023-04-20 11:00",54.6686790319231,"Approved","OW372"
"2023-04-20 12:00",54.6789087213461,"Approved","OW372"
"2023-04-20 13:00",54.6834963407692,"Approved","OW372"
"2023-04-20 14:00",54.6854339101923,"Approved","OW372"
"2023-04-20 15:00",54.6842113196154,"Approved","OW372"
"2023-04-20 16:00",54.6813927190385,"Approved","OW372"
"2023-04-20 17:00",54.6753461484615,"Approved","OW372"
"2023-04-20 18:00",54.6752953678846,"Approved","OW372"
"2023-04-20 19:00",54.6766925273077,"Approved","OW372"
"2023-04-20 20:00",54.6773717067308,"Approved","OW372"
"2023-04-20 21:00",54.6812388961539,"Approved","OW372"
"2023-04-20 22:00",54.6880960955769,"Approved","OW372"
"2023-04-20 23:00",54.695401365,"Approved","OW372"
"2023-04-21 00:00",54.7058545644231,"Approved","OW372"
"2023-04-21 01:00",54.7110878038462,"Approved","OW372"
"2023-04-21 02:00",54.7166350132692,"Approved","OW372"
"2023-04-21 03:00",54.7184782326923,"Approved","OW372"
"2023-04-21 04:00",54.7191575221154,"Approved","OW372"
"2023-04-21 05:00",54.7188488015385,"Approved","OW372"
"2023-04-21 06:00",54.7216640509615,"Approved","OW372"
"2023-04-21 07:00",54.7271493403846,"Approved","OW372"
"2023-04-21 08:00",54.7376306298077,"Approved","OW372"
"2023-04-21 09:00",54.7508019292308,"Approved","OW372"
"2023-04-21 10:00",54.7661972086538,"Approved","OW372"
"2023-04-21 11:00",54.7795445380769,"Approved","OW372"
"2023-04-21 12:00",54.7914678875,"Approved","OW372"
"2023-04-21 13:00",54.7994712669231,"Approved","OW372"
"2023-04-21 14:00",54.8027466763462,"Approved","OW372"
"2023-04-21 15:00",54.8017081057692,"Approved","OW372"
"2023-04-21 16:00",54.7965795151923,"Approved","OW372"
"2023-04-21 17:00",54.7886089746154,"Approved","OW372"
"2023-04-21 18:00",54.7802204640385,"Approved","OW372"
"2023-04-21 19:00",54.7754758934615,"Approved","OW372"
"2023-04-21 20:00",54.7735792728846,"Approved","OW372"
"2023-04-21 21:00",54.7724907523077,"Approved","OW372"
"2023-04-21 22:00",54.7750762617308,"Approved","OW372"
"2023-04-21 23:00",54.7825977411539,"Approved","OW372"
"2023-04-22 00:00",54.7876272005769,"Approved","OW372"
"2023-04-22 01:00",54.79189074,"Approved","OW372"
"2023-04-22 02:00",54.7977582694231,"Approved","OW372"
"2023-04-22 03:00",54.7990777388462,"Approved","OW372"
"2023-04-22 04:00",54.7973732382692,"Approved","OW372"
"2023-04-22 05:00",54.7967387776923,"Approved","OW372"
"2023-04-22 06:00",54.7964902171154,"Approved","OW372"
"2023-04-22 07:00",54.7978256665385,"Approved","OW372"
"2023-04-22 08:00",54.8008091859615,"Approved","OW372"
"2023-04-22 09:00",54.8092966953846,"Approved","OW372"
"2023-04-22 10:00",54.8187101748077,"Approved","OW372"
"2023-04-22 11:00",54.8291637242308,"Approved","OW372"
"2023-04-22 12:00",54.8386793136538,"Approved","OW372"
"2023-04-22 13:00",54.8478949030769,"Approved","OW372"
"2023-04-22 14:00",54.8504204825,"Approved","OW372"
"2023-04-22 15:00",54.8504460619231,"Approved","OW372"
"2023-04-22 16:00",54.8499496713462,"Approved","OW372"
"2023-04-22 17:00",54.8400832407692,"Approved","OW372"
"2023-04-22 18:00",54.8335988301923,"Approved","OW372"
"2023-04-22 19:00",54.8252904496154,"Approved","OW372"
"2023-04-22 20:00",54.8211519890385,"Approved","OW372"
"2023-04-22 21:00",54.8141715684615,"Approved","OW372"
"2023-04-22 22:00",54.8132911578846,"Approved","OW372"
"2023-04-22 23:00",54.8180566973077,"Approved","OW372"
"2023-04-23 00:00",54.8202481967308,"Approved","OW372"
"2023-04-23 01:00",54.8230117361538,"Approved","OW372"
"2023-04-23 02:00",54.8290112355769,"Approved","OW372"
"2023-04-23 03:00",54.831744685,"Approved","OW372"
"2023-04-23 04:00",54.8317561744231,"Approved","OW372"
"2023-04-23 05:00",54.8347156038462,"Approved","OW372"
"2023-04-23 06:00",54.8355068732692,"Approved","OW372"
"2023-04-23 07:00",54.8385761826923,"Approved","OW372"
"2023-04-23 08:00",54.8394055321154,"Approved","OW372"
"2023-04-23 09:00",54.8489968115385,"Approved","OW372"
"2023-04-23 10:00",54.8529000709615,"Approved","OW372"
"2023-04-23 11:00",54.8637294203846,"Approved","OW372"
"2023-04-23 12:00",54.8773487798077,"Approved","OW372"
"2023-04-23 13:00",54.8896420592308,"Approved","OW372"
"2023-04-23 14:00",54.8959833886538,"Approved","OW372"
"2023-04-23 15:00",54.9004687880769,"Approved","OW372"
"2023-04-23 16:00",54.9005042475,"Approved","OW372"
"2023-04-23 17:00",54.8968137269231,"Approved","OW372"
"2023-04-23 18:00",54.8906112263462,"Approved","OW372"
"2023-04-23 19:00",54.8870505657692,"Approved","OW372"
"2023-04-23 20:00",54.8791198651923,"Approved","OW372"
"2023-04-23 21:00",54.8765572046154,"Approved","OW372"
"2023-04-23 22:00",54.8764105340385,"Approved","OW372"
"2023-04-23 23:00",54.8790598534615,"Approved","OW372"
"2023-04-24 00:00",54.8821671128846,"Approved","OW372"
"2023-04-24 01:00",54.8862583923077,"Approved","OW372"
"2023-04-24 02:00",54.8936616617308,"Approved","OW372"
"2023-04-24 03:00",54.8968928911538,"Approved","OW372"
"2023-04-24 04:00",54.9018620805769,"Approved","OW372"
"2023-04-24 05:00",54.90575924,"Approved","OW372"
"2023-04-24 06:00",54.9091583994231,"Approved","OW372"
"2023-04-24 07:00",54.9100375788462,"Approved","OW372"
"2023-04-24 08:00",54.9136787982692,"Approved","OW372"
"2023-04-24 09:00",54.9232539776923,"Approved","OW372"
"2023-04-24 10:00",54.9330752271154,"Approved","OW372"
"2023-04-24 11:00",54.9448345365385,"Approved","OW372"
"2023-04-24 12:00",54.9575918559615,"Approved","OW372"
"2023-04-24 13:00",54.9719551653846,"Approved","OW372"
"2023-04-24 14:00",54.9840725248077,"Approved","OW372"
"2023-04-24 15:00",54.9896018742308,"Approved","OW372"
"2023-04-24 16:00",54.9957252336538,"Approved","OW372"
"2023-04-24 17:00",54.9977705630769,"Approved","OW372"
"2023-04-24 18:00",54.9956258825,"Approved","OW372"
"2023-04-24 19:00",54.9939151619231,"Approved","OW372"
"2023-04-24 20:00",54.9908763613462,"Approved","OW372"
"2023-04-24 21:00",54.9827557707692,"Approved","OW372"
"2023-04-24 22:00",54.9781270701923,"Approved","OW372"
"2023-04-24 23:00",54.9763464296154,"Approved","OW372"
"2023-04-25 00:00",54.9785238390385,"Approved","OW372"
"2023-04-25 01:00",54.9823811484615,"Approved","OW372"
"2023-04-25 02:00",54.9884504578846,"Approved","OW372"
"2023-04-25 03:00",54.9907937873077,"Approved","OW372"
"2023-04-25 04:00",54.9942191467308,"Approved","OW372"
"2023-04-25 05:00",55.0000424961538,"Approved","OW372"
"2023-04-25 06:00",55.0020638555769,"Approved","OW372"
"2023-04-25 07:00",55.004127275,"Approved","OW372"
"2023-04-25 08:00",55.0047026844231,"Approved","OW372"
"2023-04-25 09:00",55.0117980738462,"Approved","OW372"
"2023-04-25 10:00",55.0183434032692,"Approved","OW372"
"2023-04-25 11:00",55.0240487826923,"Approved","OW372"
"2023-04-25 12:00",55.0338982221154,"Approved","OW372"
"2023-04-25 13:00",55.0434916115385,"Approved","OW372"
"2023-04-25 14:00",55.0520370509615,"Approved","OW372"
"2023-04-25 15:00",55.0593565303846,"Approved","OW372"
"2023-04-25 16:00",55.0636839898077,"Approved","OW372"
"2023-04-25 17:00",55.0628254392308,"Approved","OW372"
"2023-04-25 18:00",55.0618268186538,"Approved","OW372"
"2023-04-25 19:00",55.0584142180769,"Approved","OW372"
"2023-04-25 20:00",55.0534415675,"Approved","OW372"
"2023-04-25 21:00",55.0455890069231,"Approved","OW372"
"2023-04-25 22:00",55.0392264663462,"Approved","OW372"
"2023-04-25 23:00",55.0357479357692,"Approved","OW372"
"2023-04-26 00:00",55.0346913751923,"Approved","OW372"
"2023-04-26 01:00",55.0354528046154,"Approved","OW372"
"2023-04-26 02:00",55.0381862640385,"Approved","OW372"
"2023-04-26 03:00",55.0384776534615,"Approved","OW372"
"2023-04-26 04:00",55.0419690428846,"Approved","OW372"
"2023-04-26 05:00",55.0407904023077,"Approved","OW372"
"2023-04-26 06:00",55.0463678117308,"Approved","OW372"
"2023-04-26 07:00",55.0502051511538,"Approved","OW372"
"2023-04-26 08:00",55.0521985405769,"Approved","OW372"
"2023-04-26 09:00",55.05633788,"Approved","OW372"
"2023-04-26 10:00",55.0571352594231,"Approved","OW372"
"2023-04-26 11:00",55.0608087888462,"Approved","OW372"
"2023-04-26 12:00",55.0668383582692,"Approved","OW372"
"2023-04-26 13:00",55.0693098876923,"Approved","OW372"
"2023-04-26 14:00",55.0772513371154,"Approved","OW372"
"2023-04-26 15:00",55.0836746965385,"Approved","OW372"
"2023-04-26 16:00",55.0906280159615,"Approved","OW372"
"2023-04-26 17:00",55.0954272853846,"Approved","OW372"
"2023-04-26 18:00",55.0957646248077,"Approved","OW372"
"2023-04-26 19:00",55.0943299342308,"Approved","OW372"
"2023-04-26 20:00",55.0914812536538,"Approved","OW372"
"2023-04-26 21:00",55.0875666530769,"Approved","OW372"
"2023-04-26 22:00",55.0834640425,"Approved","OW372"
"2023-04-26 23:00",55.0787953819231,"Approved","OW372"
"2023-04-27 00:00",55.0746447113462,"Approved","OW372"
"2023-04-27 01:00",55.0746740607692,"Approved","OW372"
"2023-04-27 02:00",55.0752233901923,"Approved","OW372"
"2023-04-27 03:00",55.0783806996154,"Approved","OW372"
"2023-04-27 04:00",55.0805480090385,"Approved","OW372"
"2023-04-27 05:00",55.0843572684615,"Approved","OW372"
"2023-04-27 06:00",55.0899944978846,"Approved","OW372"
"2023-04-27 07:00",55.0899258373077,"Approved","OW372"
"2023-04-27 08:00",55.0947172267308,"Approved","OW372"
"2023-04-27 09:00",55.0964126161538,"Approved","OW372"
"2023-04-27 10:00",55.0979860255769,"Approved","OW372"
"2023-04-27 11:00",55.099521485,"Approved","OW372"
"2023-04-27 12:00",55.1031069944231,"Approved","OW372"
"2023-04-27 13:00",55.1092925138462,"Approved","OW372"
"2023-04-27 14:00",55.1141059932692,"Approved","OW372"
"2023-04-27 15:00",55.1188895026923,"Approved","OW372"
"2023-04-27 16:00",55.1210570321154,"Approved","OW372"
"2023-04-27 17:00",55.1255425515385,"Approved","OW372"
"2023-04-27 18:00",55.1270040909615,"Approved","OW372"
"2023-04-27 19:00",55.1278315503846,"Approved","OW372"
"2023-04-27 20:00",55.1285449198077,"Approved","OW372"
"2023-04-27 21:00",55.1221043492308,"Approved","OW372"
"2023-04-27 22:00",55.1177158286538,"Approved","OW372"
"2023-04-27 23:00",55.1125852480769,"Approved","OW372"
"2023-04-28 00:00",55.1078346875,"Approved","OW372"
"2023-04-28 01:00",55.1059100969231,"Approved","OW372"
"2023-04-28 02:00",55.1032535363462,"Approved","OW372"
"2023-04-28 03:00",55.1028089757692,"Approved","OW372"
"2023-04-28 04:00",55.1044883751923,"Approved","OW372"
"2023-04-28 05:00",55.1083438146154,"Approved","OW372"
"2023-04-28 06:00",55.1104312040385,"Approved","OW372"
"2023-04-28 07:00",55.1129906334615,"Approved","OW372"
"2023-04-28 08:00",55.1151200928846,"Approved","OW372"
"2023-04-28 09:00",55.1159856323077,"Approved","OW372"
"2023-04-28 10:00",55.1167831317308,"Approved","OW372"
"2023-04-28 11:00",55.1159246911538,"Approved","OW372"
"2023-04-28 12:00",55.1146502705769,"Approved","OW372"
"2023-04-28 13:00",55.11715587,"Approved","OW372"
"2023-04-28 14:00",55.1176834494231,"Approved","OW372"
"2023-04-28 15:00",55.1187010388461,"Approved","OW372"
"2023-04-28 16:00",55.1223346082692,"Approved","OW372"
"2023-04-28 17:00",55.1248121276923,"Approved","OW372"
"2023-04-28 18:00",55.1284816571154,"Approved","OW372"
"2023-04-28 19:00",55.1325690565385,"Approved","OW372"
"2023-04-28 20:00",55.1344403559615,"Approved","OW372"
"2023-04-28 21:00",55.1329796953846,"Approved","OW372"
"2023-04-28 22:00",55.1266151548077,"Approved","OW372"
"2023-04-28 23:00",55.1257824542308,"Approved","OW372"
"2023-04-29 00:00",55.1205998136538,"Approved","OW372"
"2023-04-29 01:00",55.1151952030769,"Approved","OW372"
"2023-04-29 02:00",55.1109345425,"Approved","OW372"
"2023-04-29 03:00",55.1120958519231,"Approved","OW372"
"2023-04-29 04:00",55.1123631613462,"Approved","OW372"
"2023-04-29 05:00",55.1162284707692,"Approved","OW372"
"2023-04-29 06:00",55.1210937801923,"Approved","OW372"
"2023-04-29 07:00",55.1257470996154,"Approved","OW372"
"2023-04-29 08:00",55.1271784390385,"Approved","OW372"
"2023-04-29 09:00",55.1313137884615,"Approved","OW372"
"2023-04-29 10:00",55.1313812078846,"Approved","OW372"
"2023-04-29 11:00",55.1323426273077,"Approved","OW372"
"2023-04-29 12:00",55.1313680967308,"Approved","OW372"
"2023-04-29 13:00",55.1332015561538,"Approved","OW372"
"2023-04-29 14:00",55.1313090455769,"Approved","OW372"
"2023-04-29 15:00",55.131546605,"Approved","OW372"
"2023-04-29 16:00",55.1320941644231,"Approved","OW372"
"2023-04-29 17:00",55.1331036438461,"Approved","OW372"
"2023-04-29 18:00",55.1359691832692,"Approved","OW372"
"2023-04-29 19:00",55.1401346026923,"Approved","OW372"
"2023-04-29 20:00",55.1423839321154,"Approved","OW372"
"2023-04-29 21:00",55.1423773215385,"Approved","OW372"
"2023-04-29 22:00",55.1428607209615,"Approved","OW372"
"2023-04-29 23:00",55.1388421203846,"Approved","OW372"
"2023-04-30 00:00",55.1331075398077,"Approved","OW372"
"2023-04-30 01:00",55.1303789592308,"Approved","OW372"
"2023-04-30 02:00",55.1251843286538,"Approved","OW372"
"2023-04-30 03:00",55.1240956980769,"Approved","OW372"
"2023-04-30 04:00",55.1239250475,"Approved","OW372"
"2023-04-30 05:00",55.1262663869231,"Approved","OW372"
"2023-04-30 06:00",55.1308197063462,"Approved","OW372"
"2023-04-30 07:00",55.1360029957692,"Approved","OW372"
"2023-04-30 08:00",55.1432782951923,"Approved","OW372"
"2023-04-30 09:00",55.1494276146154,"Approved","OW372"
"2023-04-30 10:00",55.1531709540385,"Approved","OW372"
"2023-04-30 11:00",55.1509503534615,"Approved","OW372"
"2023-04-30 12:00",55.1522237628846,"Approved","OW372"
"2023-04-30 13:00",55.1510931823077,"Approved","OW372"
"2023-04-30 14:00",55.1456926817308,"Approved","OW372"
"2023-04-30 15:00",55.1462561011538,"Approved","OW372"
"2023-04-30 16:00",55.1462694705769,"Approved","OW372"
"2023-04-30 17:00",55.14854088,"Approved","OW372"
"2023-04-30 18:00",55.1524863294231,"Approved","OW372"
"2023-04-30 19:00",55.1575936988461,"Approved","OW372"
"2023-04-30 20:00",55.1622450282692,"Approved","OW372"
"2023-04-30 21:00",55.1660723776923,"Approved","OW372"
"2023-04-30 22:00",55.1664817471154,"Approved","OW372"
"2023-04-30 23:00",55.1654831265385,"Approved","OW372"
"2023-05-01 00:00",55.1606545459615,"Approved","OW372"
"2023-05-01 01:00",55.1556319453846,"Approved","OW372"
"2023-05-01 02:00",55.1516053648077,"Approved","OW372"
"2023-05-01 03:00",55.1468967542308,"Approved","OW372"
"2023-05-01 04:00",55.1446781536538,"Approved","OW372"
"2023-05-01 05:00",55.1465615530769,"Approved","OW372"
"2023-05-01 06:00",55.1518148825,"Approved","OW372"
"2023-05-01 07:00",55.1577482219231,"Approved","OW372"
"2023-05-01 08:00",55.1601876713462,"Approved","OW372"
"2023-05-01 09:00",55.1661351107692,"Approved","OW372"
"2023-05-01 10:00",55.1725305001923,"Approved","OW372"
"2023-05-01 11:00",55.1714639596154,"Approved","OW372"
"2023-05-01 12:00",55.1725714490385,"Approved","OW372"
"2023-05-01 13:00",55.1702308784615,"Approved","OW372"
"2023-05-01 14:00",55.1657982978846,"Approved","OW372"
"2023-05-01 15:00",55.1593677073077,"Approved","OW372"
"2023-05-01 16:00",55.1534451167308,"Approved","OW372"
"2023-05-01 17:00",55.1530305161538,"Approved","OW372"
"2023-05-01 18:00",55.1508639755769,"Approved","OW372"
"2023-05-01 19:00",55.153231395,"Approved","OW372"
"2023-05-01 20:00",55.1591088044231,"Approved","OW372"
"2023-05-01 21:00",55.1632622338462,"Approved","OW372"
"2023-05-01 22:00",55.1670196632692,"Approved","OW372"
"2023-05-01 23:00",55.1746588926923,"Approved","OW372"
"2023-05-02 00:00",55.1614583821154,"Approved","OW372"
"2023-05-02 01:00",55.1700236915385,"Approved","OW372"
"2023-05-02 02:00",55.1650769009615,"Approved","OW372"
"2023-05-02 03:00",55.1482145803846,"Approved","OW372"
"2023-05-02 04:00",55.1648919898077,"Approved","OW372"
"2023-05-02 05:00",55.1543254492308,"Approved","OW372"
"2023-05-02 06:00",55.1572688886538,"Approved","OW372"
"2023-05-02 07:00",55.1610043480769,"Approved","OW372"
"2023-05-02 08:00",55.1683198275,"Approved","OW372"
"2023-05-02 09:00",55.1724372969231,"Approved","OW372"
"2023-05-02 10:00",55.1756248063462,"Approved","OW372"
"2023-05-02 11:00",55.1769123157692,"Approved","OW372"
"2023-05-02 12:00",55.1769838451923,"Approved","OW372"
"2023-05-02 13:00",55.1729833446154,"Approved","OW372"
"2023-05-02 14:00",55.1681168040385,"Approved","OW372"
"2023-05-02 15:00",55.1658181834615,"Approved","OW372"
"2023-05-02 16:00",55.1618535228846,"Approved","OW372"
"2023-05-02 17:00",55.1599648923077,"Approved","OW372"
"2023-05-02 18:00",55.1634182117308,"Approved","OW372"
"2023-05-02 19:00",55.1682594311538,"Approved","OW372"
"2023-05-02 20:00",55.1730986605769,"Approved","OW372"
"2023-05-02 21:00",55.17835997,"Approved","OW372"
"2023-05-02 22:00",55.1818412594231,"Approved","OW372"
"2023-05-02 23:00",55.1872904688462,"Approved","OW372"
"2023-05-03 00:00",55.1873817482692,"Approved","OW372"
"2023-05-03 01:00",55.1874690376923,"Approved","OW372"
"2023-05-03 02:00",55.1844903871154,"Approved","OW372"
"2023-05-03 03:00",55.1794658065385,"Approved","OW372"
"2023-05-03 04:00",55.1780751759615,"Approved","OW372"
"2023-05-03 05:00",55.1772685653846,"Approved","OW372"
"2023-05-03 06:00",55.1813599548077,"Approved","OW372"
"2023-05-03 07:00",55.1852273742308,"Approved","OW372"
"2023-05-03 08:00",55.1952708236538,"Approved","OW372"
"2023-05-03 09:00",55.2017443430769,"Approved","OW372"
"2023-05-03 10:00",55.2105658125,"Approved","OW372"
"2023-05-03 11:00",55.2158773019231,"Approved","OW372"
"2023-05-03 12:00",55.2154488213462,"Approved","OW372"
"2023-05-03 13:00",55.2135183507692,"Approved","OW372"
"2023-05-03 14:00",55.2088419401923,"Approved","OW372"
"2023-05-03 15:00",55.2017715096154,"Approved","OW372"
"2023-05-03 16:00",55.1955430390385,"Approved","OW372"
"2023-05-03 17:00",55.1904525284615,"Approved","OW372"
"2023-05-03 18:00",55.1892299278846,"Approved","OW372"
"2023-05-03 19:00",55.1890432973077,"Approved","OW372"
"2023-05-03 20:00",55.1916505567308,"Approved","OW372"
"2023-05-03 21:00",55.1964097561538,"Approved","OW372"
"2023-05-03 22:00",55.2004090255769,"Approved","OW372"
"2023-05-03 23:00",55.209714295,"Approved","OW372"
"2023-05-04 00:00",55.2049055744231,"Approved","OW372"
"2023-05-04 01:00",55.2077668838462,"Approved","OW372"
"2023-05-04 02:00",55.2045083332692,"Approved","OW372"
"2023-05-04 03:00",55.1987077126923,"Approved","OW372"
"2023-05-04 04:00",55.2006290721154,"Approved","OW372"
"2023-05-04 05:00",55.2016024815385,"Approved","OW372"
"2023-05-04 06:00",55.2088938709615,"Approved","OW372"
"2023-05-04 07:00",55.2155313303846,"Approved","OW372"
"2023-05-04 08:00",55.2260207198077,"Approved","OW372"
"2023-05-04 09:00",55.2348641692308,"Approved","OW372"
"2023-05-04 10:00",55.2389856386538,"Approved","OW372"
"2023-05-04 11:00",55.2493271980769,"Approved","OW372"
"2023-05-04 12:00",55.2508546675,"Approved","OW372"
"2023-05-04 13:00",55.2523601569231,"Approved","OW372"
"2023-05-04 14:00",55.2488896163462,"Approved","OW372"
"2023-05-04 15:00",55.2421590357692,"Approved","OW372"
"2023-05-04 16:00",55.2323745151923,"Approved","OW372"
"2023-05-04 17:00",55.2322118546154,"Approved","OW372"
"2023-05-04 18:00",55.2271470840385,"Approved","OW372"
"2023-05-04 19:00",55.2287103934615,"Approved","OW372"
"2023-05-04 20:00",55.2335416228846,"Approved","OW372"
"2023-05-04 21:00",55.2388269123077,"Approved","OW372"
"2023-05-04 22:00",55.2391722417308,"Approved","OW372"
"2023-05-04 23:00",55.2479495311538,"Approved","OW372"
"2023-05-05 00:00",55.2467770005769,"Approved","OW372"
"2023-05-05 01:00",55.25587039,"Approved","OW372"
"2023-05-05 02:00",55.2523937394231,"Approved","OW372"
"2023-05-05 03:00",55.2544210888462,"Approved","OW372"
"2023-05-05 04:00",55.2528183682692,"Approved","OW372"
"2023-05-05 05:00",55.2507676876923,"Approved","OW372"
"2023-05-05 06:00",55.2530990371154,"Approved","OW372"
"2023-05-05 07:00",55.2605743365385,"Approved","OW372"
"2023-05-05 08:00",55.2701316459615,"Approved","OW372"
"2023-05-05 09:00",55.2813029553846,"Approved","OW372"
"2023-05-05 10:00",55.2948102148077,"Approved","OW372"
"2023-05-05 11:00",55.3058895042308,"Approved","OW372"
"2023-05-05 12:00",55.3106727936538,"Approved","OW372"
"2023-05-05 13:00",55.3166720630769,"Approved","OW372"
"2023-05-05 14:00",55.3133513525,"Approved","OW372"
"2023-05-05 15:00",55.3079607219231,"Approved","OW372"
"2023-05-05 16:00",55.3027180413462,"Approved","OW372"
"2023-05-05 17:00",55.2927653707692,"Approved","OW372"
"2023-05-05 18:00",55.2875146901923,"Approved","OW372"
"2023-05-05 19:00",55.2834760096154,"Approved","OW372"
"2023-05-05 20:00",55.2825493090385,"Approved","OW372"
"2023-05-05 21:00",55.2834446884615,"Approved","OW372"